START_TIME,STEP,MOV.,P11,t_acc.,P23,t_acc.,P27,t_acc.,A4,t_acc.
1981-08-28 09:00:23.820 ,4,0,0.,4.8,0.,4.8,3.,4.8,0.,4.8
1981-08-28 09:00:28.620 ,4,0,0.,4.8,0.,4.8,0.,4.8,0.,4.8
1981-08-28 09:00:33.420 ,4,0,1.,4.8,0.,4.8,0.,4.8,0.,4.8
1981-08-28 09:00:38.220 ,4,0,1.,4.8,0.,4.8,0.,4.8,0.,4.8
1981-08-28 09:00:43.020 ,4,0,0.,4.8,0.,4.8,0.,4.8,0.,4.8
1981-08-28 09:00:47.820 ,3,0,0.,4.8,0.,4.8,1.,4.8,0.,4.8
1981-08-28 09:00:52.620 ,3,0,3.,4.8,0.,4.8,1.,4.8,0.,4.8
1981-08-28 09:00:57.420 ,3,0,0.,4.8,0.,4.8,0.,4.8,0.,4.8
1981-08-28 09:01:02.220 ,3,0,0.,4.8,0.,4.8,0.,4.8,0.,4.8
1981-08-28 09:01:07.020 ,3,0,2.,4.8,0.,4.8,0.,4.8,0.,4.8
1981-08-28 09:01:11.820 ,2,0,0.,4.8,0.,4.8,0.,4.8,0.,4.8
1981-08-28 09:01:16.620 ,2,0,1.,4.8,0.,4.8,0.,4.8,0.,4.8
1981-08-28 09:01:21.420 ,2,0,0.,4.8,0.,4.8,0.,4.8,0.,4.8
1981-08-28 09:01:26.220 ,2,0,0.,4.8,0.,4.8,0.,4.8,0.,4.8
1981-08-28 09:01:31.020 ,2,0,0.,4.8,0.,4.8,0.,4.8,0.,4.8
1981-08-28 09:01:35.820 ,1,0,0.,4.8,0.,4.8,0.,4.8,0.,4.8
1981-08-28 09:01:40.620 ,1,0,1.,4.8,0.,4.8,0.,4.8,0.,4.8
1981-08-28 09:01:45.420 ,1,0,1.,4.8,0.,4.8,0.,4.8,0.,4.8
1981-08-28 09:01:50.220 ,1,0,0.,4.8,0.,4.8,0.,4.8,0.,4.8
1981-08-28 09:01:55.020 ,1,0,0.,4.8,0.,4.8,0.,4.8,0.,4.8
1981-08-28 09:01:59.820 ,0,0,0.,4.8,0.,4.8,0.,4.8,0.,4.8
1981-08-28 09:02:04.620 ,0,0,0.,4.8,0.,4.8,0.,4.8,0.,4.8
1981-08-28 09:02:09.420 ,0,0,0.,4.8,0.,4.8,0.,4.8,0.,4.8
1981-08-28 09:02:14.220 ,0,0,1.,4.8,0.,4.8,0.,4.8,0.,4.8
1981-08-28 09:02:19.020 ,0,0,0.,4.8,0.,4.8,0.,4.8,0.,4.8
1981-08-28 09:02:23.820 ,0,0,0.,4.8,0.,4.8,0.,4.8,0.,4.8
1981-08-28 09:02:28.620 ,0,0,0.,4.8,0.,4.8,0.,4.8,0.,4.8
1981-08-28 09:02:33.420 ,0,0,0.,4.8,0.,4.8,0.,4.8,0.,4.8
1981-08-28 09:02:38.220 ,0,0,0.,4.8,0.,4.8,0.,4.8,0.,4.8
1981-08-28 09:02:43.020 ,0,0,0.,4.8,0.,4.8,0.,4.8,0.,4.8
1981-08-28 09:02:47.820 ,1,0,0.,4.8,0.,4.8,0.,4.8,0.,4.8
1981-08-28 09:02:52.620 ,1,0,0.,4.8,0.,4.8,0.,4.8,0.,4.8
1981-08-28 09:02:57.420 ,1,0,0.,4.8,0.,4.8,1.,4.8,0.,4.8
1981-08-28 09:03:02.220 ,1,0,0.,4.8,1.,4.8,0.,4.8,0.,4.8
1981-08-28 09:03:07.020 ,1,0,0.,4.8,0.,4.8,0.,4.8,0.,4.8
1981-08-28 09:03:11.820 ,2,0,0.,4.8,0.,4.8,0.,4.8,0.,4.8
1981-08-28 09:03:16.620 ,2,0,0.,4.8,0.,4.8,1.,4.8,0.,4.8
1981-08-28 09:03:21.420 ,2,0,0.,4.8,0.,4.8,0.,4.8,0.,4.8
1981-08-28 09:03:26.220 ,2,0,0.,4.8,0.,4.8,0.,4.8,0.,4.8
1981-08-28 09:03:31.020 ,2,0,0.,4.8,0.,4.8,0.,4.8,0.,4.8
1981-08-28 09:03:35.820 ,3,0,0.,4.8,0.,4.8,0.,4.8,0.,4.8
1981-08-28 09:03:40.620 ,3,0,0.,4.8,0.,4.8,0.,4.8,0.,4.8
1981-08-28 09:03:45.420 ,3,0,0.,4.8,0.,4.8,0.,4.8,0.,4.8
1981-08-28 09:03:50.220 ,3,0,2.,4.8,0.,4.8,0.,4.8,0.,4.8
1981-08-28 09:03:55.020 ,3,0,1.,4.8,0.,4.8,0.,4.8,0.,4.8
1981-08-28 09:03:59.820 ,4,0,1.,4.8,0.,4.8,0.,4.8,0.,4.8
1981-08-28 09:04:04.620 ,4,0,0.,4.8,0.,4.8,0.,4.8,0.,4.8
1981-08-28 09:04:09.420 ,4,0,0.,4.8,0.,4.8,0.,4.8,0.,4.8
1981-08-28 09:04:14.220 ,4,0,0.,4.8,0.,4.8,0.,4.8,0.,4.8
1981-08-28 09:04:19.020 ,4,0,0.,4.8,0.,4.8,0.,4.8,0.,4.8
1981-08-28 09:04:23.820 ,5,0,0.,4.8,0.,4.8,0.,4.8,0.,4.8
1981-08-28 09:04:28.620 ,5,0,0.,4.8,0.,4.8,0.,4.8,0.,4.8
1981-08-28 09:04:33.420 ,5,0,0.,4.8,0.,4.8,0.,4.8,0.,4.8
1981-08-28 09:04:38.220 ,5,0,1.,4.8,0.,4.8,0.,4.8,0.,4.8
1981-08-28 09:04:43.020 ,5,0,0.,4.8,0.,4.8,1.,4.8,0.,4.8
1981-08-28 09:04:47.820 ,6,0,0.,4.8,0.,4.8,0.,4.8,0.,4.8
1981-08-28 09:04:52.620 ,6,0,2.,4.8,0.,4.8,0.,4.8,0.,4.8
1981-08-28 09:04:57.420 ,6,0,1.,4.8,0.,4.8,0.,4.8,0.,4.8
1981-08-28 09:05:02.220 ,6,0,2.,4.8,0.,4.8,0.,4.8,0.,4.8
1981-08-28 09:05:07.020 ,6,0,0.,4.8,0.,4.8,0.,4.8,0.,4.8
1981-08-28 09:05:11.820 ,7,0,1.,4.8,0.,4.8,1.,4.8,0.,4.8
1981-08-28 09:05:16.620 ,7,0,0.,4.8,0.,4.8,0.,4.8,0.,4.8
1981-08-28 09:05:21.420 ,7,0,0.,4.8,0.,4.8,0.,4.8,0.,4.8
1981-08-28 09:05:26.220 ,7,0,1.,4.8,0.,4.8,0.,4.8,0.,4.8
1981-08-28 09:05:31.020 ,7,0,0.,4.8,0.,4.8,0.,4.8,0.,4.8
1981-08-28 09:05:35.820 ,7,0,0.,4.8,0.,4.8,0.,4.8,0.,4.8
1981-08-28 09:05:40.620 ,7,0,0.,4.8,0.,4.8,0.,4.8,0.,4.8
1981-08-28 09:05:45.420 ,7,0,0.,4.8,0.,4.8,0.,4.8,0.,4.8
1981-08-28 09:05:50.220 ,7,0,0.,4.8,0.,4.8,0.,4.8,0.,4.8
1981-08-28 09:05:55.020 ,7,0,1.,4.8,0.,4.8,1.,4.8,0.,4.8
1981-08-28 09:05:59.820 ,7,0,0.,4.8,0.,4.8,0.,4.8,0.,4.8
1981-08-28 09:06:04.620 ,7,0,0.,4.8,0.,4.8,0.,4.8,0.,4.8
1981-08-28 09:06:09.420 ,7,0,0.,4.8,0.,4.8,0.,4.8,0.,4.8
1981-08-28 09:06:14.220 ,7,0,0.,4.8,0.,4.8,0.,4.8,0.,4.8
1981-08-28 09:06:19.020 ,7,0,0.,4.8,0.,4.8,0.,4.8,0.,4.8
1981-08-28 09:06:23.820 ,6,0,0.,4.8,0.,4.8,0.,4.8,0.,4.8
1981-08-28 09:06:28.620 ,6,0,1.,4.8,0.,4.8,0.,4.8,0.,4.8
1981-08-28 09:06:33.420 ,6,0,0.,4.8,0.,4.8,0.,4.8,0.,4.8
1981-08-28 09:06:38.220 ,6,0,1.,4.8,0.,4.8,0.,4.8,0.,4.8
1981-08-28 09:06:43.020 ,6,0,0.,4.8,0.,4.8,1.,4.8,0.,4.8
1981-08-28 09:06:47.820 ,6,0,0.,4.8,0.,4.8,0.,4.8,0.,4.8
1981-08-28 09:06:52.620 ,6,0,0.,4.8,0.,4.8,0.,4.8,0.,4.8
1981-08-28 09:06:57.420 ,6,0,0.,4.8,0.,4.8,0.,4.8,0.,4.8
1981-08-28 09:07:02.220 ,6,0,0.,4.8,0.,4.8,0.,4.8,0.,4.8
1981-08-28 09:07:07.020 ,6,0,0.,4.8,0.,4.8,0.,4.8,0.,4.8
1981-08-28 09:07:11.820 ,5,0,1.,4.8,0.,4.8,0.,4.8,0.,4.8
1981-08-28 09:07:16.620 ,5,0,0.,4.8,0.,4.8,0.,4.8,0.,4.8
1981-08-28 09:07:21.420 ,5,0,0.,4.8,0.,4.8,0.,4.8,0.,4.8
1981-08-28 09:07:26.220 ,5,0,0.,4.8,0.,4.8,0.,4.8,0.,4.8
1981-08-28 09:07:31.020 ,5,0,1.,4.8,0.,4.8,0.,4.8,0.,4.8
1981-08-28 09:07:35.820 ,5,0,0.,4.8,0.,4.8,0.,4.8,0.,4.8
1981-08-28 09:07:40.620 ,5,0,0.,4.8,0.,4.8,0.,4.8,0.,4.8
1981-08-28 09:07:45.420 ,5,0,0.,4.8,0.,4.8,0.,4.8,0.,4.8
1981-08-28 09:07:50.220 ,5,0,0.,4.8,0.,4.8,0.,4.8,0.,4.8
1981-08-28 09:07:55.020 ,5,0,0.,4.8,0.,4.8,0.,4.8,0.,4.8
1981-08-28 09:07:59.820 ,4,0,0.,4.8,0.,4.8,0.,4.8,0.,4.8
1981-08-28 09:08:04.620 ,4,0,0.,4.8,0.,4.8,0.,4.8,0.,4.8
1981-08-28 09:08:09.420 ,4,0,0.,4.8,0.,4.8,0.,4.8,0.,4.8
1981-08-28 09:08:14.220 ,4,0,0.,4.8,0.,4.8,0.,4.8,0.,4.8
1981-08-28 09:08:19.020 ,4,0,0.,4.8,0.,4.8,0.,4.8,0.,4.8
1981-08-28 09:08:23.820 ,4,0,2.,4.8,0.,4.8,0.,4.8,0.,4.8
1981-08-28 09:08:28.620 ,4,0,0.,4.8,0.,4.8,0.,4.8,0.,4.8
1981-08-28 09:08:33.420 ,4,0,0.,4.8,0.,4.8,1.,4.8,0.,4.8
1981-08-28 09:08:38.220 ,4,0,0.,4.8,0.,4.8,0.,4.8,0.,4.8
1981-08-28 09:08:43.020 ,4,0,0.,4.8,0.,4.8,0.,4.8,0.,4.8
1981-08-28 09:08:47.820 ,3,0,1.,4.8,0.,4.8,1.,4.8,0.,4.8
1981-08-28 09:08:52.620 ,3,0,0.,4.8,0.,4.8,0.,4.8,0.,4.8
1981-08-28 09:08:57.420 ,3,0,0.,4.8,0.,4.8,0.,4.8,0.,4.8
1981-08-28 09:09:02.220 ,3,0,0.,4.8,0.,4.8,0.,4.8,0.,4.8
1981-08-28 09:09:07.020 ,3,0,1.,4.8,0.,4.8,1.,4.8,0.,4.8
1981-08-28 09:09:11.820 ,3,0,0.,4.8,0.,4.8,0.,4.8,0.,4.8
1981-08-28 09:09:16.620 ,3,0,1.,4.8,0.,4.8,0.,4.8,0.,4.8
1981-08-28 09:09:21.420 ,3,0,1.,4.8,0.,4.8,0.,4.8,0.,4.8
1981-08-28 09:09:26.220 ,3,0,0.,4.8,0.,4.8,0.,4.8,0.,4.8
1981-08-28 09:09:31.020 ,3,0,0.,4.8,0.,4.8,0.,4.8,0.,4.8
1981-08-28 09:09:35.820 ,2,0,0.,4.8,0.,4.8,0.,4.8,0.,4.8
1981-08-28 09:09:40.620 ,2,0,0.,4.8,0.,4.8,0.,4.8,0.,4.8
1981-08-28 09:09:45.420 ,2,0,0.,4.8,0.,4.8,0.,4.8,0.,4.8
1981-08-28 09:09:50.220 ,2,0,0.,4.8,0.,4.8,0.,4.8,0.,4.8
1981-08-28 09:09:55.020 ,2,0,0.,4.8,0.,4.8,0.,4.8,0.,4.8
1981-08-28 09:09:59.820 ,2,0,0.,4.8,0.,4.8,0.,4.8,0.,4.8
1981-08-28 09:10:04.620 ,2,0,0.,4.8,0.,4.8,0.,4.8,0.,4.8
1981-08-28 09:10:09.420 ,2,0,0.,4.8,0.,4.8,0.,4.8,0.,4.8
1981-08-28 09:10:14.220 ,2,0,0.,4.8,0.,4.8,0.,4.8,0.,4.8
1981-08-28 09:10:19.020 ,2,0,0.,4.8,0.,4.8,0.,4.8,0.,4.8
1981-08-28 09:10:23.820 ,1,0,0.,4.8,0.,4.8,0.,4.8,0.,4.8
1981-08-28 09:10:28.620 ,1,0,0.,4.8,0.,4.8,0.,4.8,0.,4.8
1981-08-28 09:10:33.420 ,1,0,0.,4.8,0.,4.8,0.,4.8,0.,4.8
1981-08-28 09:10:38.220 ,1,0,1.,4.8,0.,4.8,1.,4.8,0.,4.8
1981-08-28 09:10:43.020 ,1,0,0.,4.8,0.,4.8,0.,4.8,0.,4.8
1981-08-28 09:10:47.820 ,1,0,0.,4.8,0.,4.8,0.,4.8,0.,4.8
1981-08-28 09:10:52.620 ,1,0,0.,4.8,0.,4.8,0.,4.8,0.,4.8
1981-08-28 09:10:57.420 ,1,0,0.,4.8,0.,4.8,0.,4.8,0.,4.8
1981-08-28 09:11:02.220 ,1,0,0.,4.8,0.,4.8,0.,4.8,0.,4.8
1981-08-28 09:11:07.020 ,1,0,0.,4.8,0.,4.8,0.,4.8,0.,4.8
1981-08-28 09:11:11.820 ,0,0,0.,4.8,0.,4.8,0.,4.8,0.,4.8
1981-08-28 09:11:16.620 ,0,0,0.,4.8,0.,4.8,0.,4.8,0.,4.8
1981-08-28 09:11:21.420 ,0,0,0.,4.8,0.,4.8,0.,4.8,0.,4.8
1981-08-28 09:11:26.220 ,0,0,0.,4.8,0.,4.8,1.,4.8,0.,4.8
1981-08-28 09:11:31.020 ,0,0,0.,4.8,0.,4.8,0.,4.8,0.,4.8
1981-08-28 09:11:35.820 ,0,0,0.,4.8,0.,4.8,0.,4.8,0.,4.8
1981-08-28 09:11:40.620 ,0,0,0.,4.8,0.,4.8,0.,4.8,0.,4.8
1981-08-28 09:11:45.420 ,0,0,0.,4.8,0.,4.8,0.,4.8,0.,4.8
1981-08-28 09:11:50.220 ,0,0,1.,4.8,0.,4.8,0.,4.8,0.,4.8
1981-08-28 09:11:55.020 ,0,0,0.,4.8,0.,4.8,0.,4.8,0.,4.8
1981-08-28 09:11:59.820 ,0,0,3.,4.8,0.,4.8,0.,4.8,0.,4.8
1981-08-28 09:12:04.620 ,0,0,0.,4.8,0.,4.8,0.,4.8,0.,4.8
1981-08-28 09:12:09.420 ,0,0,0.,4.8,0.,4.8,0.,4.8,0.,4.8
1981-08-28 09:12:14.220 ,0,0,1.,4.8,0.,4.8,0.,4.8,0.,4.8
1981-08-28 09:12:19.020 ,0,0,0.,4.8,0.,4.8,0.,4.8,0.,4.8
1981-08-28 09:12:23.820 ,0,0,2.,4.8,0.,4.8,1.,4.8,0.,4.8
1981-08-28 09:12:28.620 ,0,0,1.,4.8,0.,4.8,0.,4.8,0.,4.8
1981-08-28 09:12:33.420 ,0,0,1.,4.8,0.,4.8,0.,4.8,0.,4.8
1981-08-28 09:12:38.220 ,0,0,1.,4.8,0.,4.8,0.,4.8,0.,4.8
1981-08-28 09:12:43.020 ,0,0,0.,4.8,0.,4.8,0.,4.8,0.,4.8
1981-08-28 09:12:47.820 ,1,0,1.,4.8,0.,4.8,0.,4.8,0.,4.8
1981-08-28 09:12:52.620 ,1,0,2.,4.8,0.,4.8,0.,4.8,0.,4.8
1981-08-28 09:12:57.420 ,1,0,0.,4.8,0.,4.8,1.,4.8,0.,4.8
1981-08-28 09:13:02.220 ,1,0,1.,4.8,0.,4.8,0.,4.8,0.,4.8
1981-08-28 09:13:07.020 ,1,0,0.,4.8,0.,4.8,0.,4.8,0.,4.8
1981-08-28 09:13:11.820 ,1,0,1.,4.8,0.,4.8,0.,4.8,0.,4.8
1981-08-28 09:13:16.620 ,1,0,0.,4.8,0.,4.8,0.,4.8,0.,4.8
1981-08-28 09:13:21.420 ,1,0,0.,4.8,0.,4.8,0.,4.8,0.,4.8
1981-08-28 09:13:26.220 ,1,0,1.,4.8,0.,4.8,0.,4.8,0.,4.8
1981-08-28 09:13:31.020 ,1,0,2.,4.8,0.,4.8,0.,4.8,0.,4.8
1981-08-28 09:13:35.820 ,2,0,3.,4.8,0.,4.8,0.,4.8,1.,4.8
1981-08-28 09:13:40.620 ,2,0,2.,4.8,0.,4.8,0.,4.8,0.,4.8
1981-08-28 09:13:45.420 ,2,0,1.,4.8,0.,4.8,1.,4.8,0.,4.8
1981-08-28 09:13:50.220 ,2,0,0.,4.8,0.,4.8,0.,4.8,0.,4.8
1981-08-28 09:13:55.020 ,2,0,0.,4.8,0.,4.8,1.,4.8,0.,4.8
1981-08-28 09:13:59.820 ,2,0,1.,4.8,0.,4.8,0.,4.8,0.,4.8
1981-08-28 09:14:04.620 ,2,0,2.,4.8,0.,4.8,0.,4.8,0.,4.8
1981-08-28 09:14:09.420 ,2,0,0.,4.8,0.,4.8,0.,4.8,0.,4.8
1981-08-28 09:14:14.220 ,2,0,1.,4.8,0.,4.8,0.,4.8,0.,4.8
1981-08-28 09:14:19.020 ,2,0,0.,4.8,0.,4.8,0.,4.8,0.,4.8
1981-08-28 09:14:23.820 ,3,0,0.,4.8,0.,4.8,0.,4.8,0.,4.8
1981-08-28 09:14:28.620 ,3,0,0.,4.8,0.,4.8,0.,4.8,0.,4.8
1981-08-28 09:14:33.420 ,3,0,0.,4.8,0.,4.8,0.,4.8,0.,4.8
1981-08-28 09:14:38.220 ,3,0,0.,4.8,0.,4.8,0.,4.8,0.,4.8
1981-08-28 09:14:43.020 ,3,0,0.,4.8,0.,4.8,0.,4.8,0.,4.8
1981-08-28 09:14:47.820 ,3,0,0.,4.8,0.,4.8,0.,4.8,0.,4.8
1981-08-28 09:14:52.620 ,3,0,1.,4.8,0.,4.8,0.,4.8,0.,4.8
1981-08-28 09:14:57.420 ,3,0,0.,4.8,0.,4.8,0.,4.8,0.,4.8
1981-08-28 09:15:02.220 ,3,0,0.,4.8,0.,4.8,0.,4.8,0.,4.8
1981-08-28 09:15:07.020 ,3,0,0.,4.8,0.,4.8,0.,4.8,0.,4.8
1981-08-28 09:15:11.820 ,4,0,0.,4.8,0.,4.8,0.,4.8,0.,4.8
1981-08-28 09:15:16.620 ,4,0,1.,4.8,0.,4.8,0.,4.8,0.,4.8
1981-08-28 09:15:21.420 ,4,0,1.,4.8,0.,4.8,0.,4.8,0.,4.8
1981-08-28 09:15:26.220 ,4,0,1.,4.8,0.,4.8,0.,4.8,0.,4.8
1981-08-28 09:15:31.020 ,4,0,0.,4.8,0.,4.8,0.,4.8,0.,4.8
1981-08-28 09:15:35.820 ,4,0,0.,4.8,0.,4.8,0.,4.8,0.,4.8
1981-08-28 09:15:40.620 ,4,0,0.,4.8,0.,4.8,1.,4.8,0.,4.8
1981-08-28 09:15:45.420 ,4,0,1.,4.8,0.,4.8,0.,4.8,0.,4.8
1981-08-28 09:15:50.220 ,4,0,0.,4.8,0.,4.8,1.,4.8,0.,4.8
1981-08-28 09:15:55.020 ,4,0,0.,4.8,0.,4.8,0.,4.8,0.,4.8
1981-08-28 09:15:59.820 ,5,0,0.,4.8,0.,4.8,1.,4.8,0.,4.8
1981-08-28 09:16:04.620 ,5,0,1.,4.8,0.,4.8,0.,4.8,0.,4.8
1981-08-28 09:16:09.420 ,5,0,1.,4.8,0.,4.8,0.,4.8,0.,4.8
1981-08-28 09:16:14.220 ,5,0,0.,4.8,0.,4.8,0.,4.8,0.,4.8
1981-08-28 09:16:19.020 ,5,0,1.,4.8,0.,4.8,0.,4.8,0.,4.8
1981-08-28 09:16:23.820 ,5,0,0.,4.8,0.,4.8,0.,4.8,0.,4.8
1981-08-28 09:16:28.620 ,5,0,0.,4.8,0.,4.8,0.,4.8,0.,4.8
1981-08-28 09:16:33.420 ,5,0,0.,4.8,0.,4.8,0.,4.8,0.,4.8
1981-08-28 09:16:38.220 ,5,0,2.,4.8,0.,4.8,0.,4.8,0.,4.8
1981-08-28 09:16:43.020 ,5,0,0.,4.8,0.,4.8,0.,4.8,0.,4.8
1981-08-28 09:16:47.820 ,6,0,0.,4.8,0.,4.8,0.,4.8,0.,4.8
1981-08-28 09:16:52.620 ,6,0,0.,4.8,0.,4.8,0.,4.8,0.,4.8
1981-08-28 09:16:57.420 ,6,0,0.,4.8,0.,4.8,0.,4.8,0.,4.8
1981-08-28 09:17:02.220 ,6,0,0.,4.8,0.,4.8,0.,4.8,0.,4.8
1981-08-28 09:17:07.020 ,6,0,0.,4.8,0.,4.8,0.,4.8,0.,4.8
1981-08-28 09:17:11.820 ,6,0,2.,4.8,0.,4.8,0.,4.8,0.,4.8
1981-08-28 09:17:16.620 ,6,0,1.,4.8,0.,4.8,0.,4.8,0.,4.8
1981-08-28 09:17:21.420 ,6,0,0.,4.8,0.,4.8,0.,4.8,0.,4.8
1981-08-28 09:17:26.220 ,6,0,0.,4.8,0.,4.8,0.,4.8,0.,4.8
1981-08-28 09:17:31.020 ,6,0,0.,4.8,0.,4.8,0.,4.8,0.,4.8
1981-08-28 09:17:35.820 ,7,0,0.,4.8,0.,4.8,0.,4.8,0.,4.8
1981-08-28 09:17:40.620 ,7,0,0.,4.8,0.,4.8,0.,4.8,0.,4.8
1981-08-28 09:17:45.420 ,7,0,0.,4.8,0.,4.8,0.,4.8,0.,4.8
1981-08-28 09:17:50.220 ,7,0,0.,4.8,0.,4.8,1.,4.8,0.,4.8
1981-08-28 09:17:55.020 ,7,0,0.,4.8,0.,4.8,1.,4.8,0.,4.8
1981-08-28 09:17:59.820 ,7,0,0.,4.8,0.,4.8,0.,4.8,0.,4.8
1981-08-28 09:18:04.620 ,7,0,0.,4.8,0.,4.8,0.,4.8,0.,4.8
1981-08-28 09:18:09.420 ,7,0,0.,4.8,0.,4.8,0.,4.8,0.,4.8
1981-08-28 09:18:14.220 ,7,0,0.,4.8,0.,4.8,0.,4.8,0.,4.8
1981-08-28 09:18:19.020 ,7,0,0.,4.8,0.,4.8,0.,4.8,0.,4.8
1981-08-28 09:18:23.820 ,7,0,0.,4.8,0.,4.8,0.,4.8,0.,4.8
1981-08-28 09:18:28.620 ,7,0,0.,4.8,0.,4.8,0.,4.8,0.,4.8
1981-08-28 09:18:33.420 ,7,0,0.,4.8,0.,4.8,0.,4.8,0.,4.8
1981-08-28 09:18:38.220 ,7,0,0.,4.8,0.,4.8,0.,4.8,0.,4.8
1981-08-28 09:18:43.020 ,7,0,0.,4.8,0.,4.8,0.,4.8,0.,4.8
1981-08-28 09:18:47.820 ,6,0,0.,4.8,0.,4.8,0.,4.8,0.,4.8
1981-08-28 09:18:52.620 ,6,0,1.,4.8,0.,4.8,0.,4.8,0.,4.8
1981-08-28 09:18:57.420 ,6,0,0.,4.8,0.,4.8,1.,4.8,0.,4.8
1981-08-28 09:19:02.220 ,6,0,0.,4.8,0.,4.8,1.,4.8,0.,4.8
1981-08-28 09:19:07.020 ,6,0,0.,4.8,0.,4.8,0.,4.8,0.,4.8
1981-08-28 09:19:11.820 ,5,0,0.,4.8,0.,4.8,0.,4.8,0.,4.8
1981-08-28 09:19:16.620 ,5,0,0.,4.8,0.,4.8,0.,4.8,0.,4.8
1981-08-28 09:19:21.420 ,5,0,0.,4.8,0.,4.8,0.,4.8,0.,4.8
1981-08-28 09:19:26.220 ,5,0,0.,4.8,0.,4.8,0.,4.8,0.,4.8
1981-08-28 09:19:31.020 ,5,0,0.,4.8,0.,4.8,0.,4.8,0.,4.8
1981-08-28 09:19:35.820 ,4,0,0.,4.8,0.,4.8,0.,4.8,0.,4.8
1981-08-28 09:19:40.620 ,4,0,0.,4.8,0.,4.8,0.,4.8,0.,4.8
1981-08-28 09:19:45.420 ,4,0,0.,4.8,0.,4.8,0.,4.8,0.,4.8
1981-08-28 09:19:50.220 ,4,0,1.,4.8,0.,4.8,0.,4.8,0.,4.8
1981-08-28 09:19:55.020 ,4,0,1.,4.8,0.,4.8,0.,4.8,0.,4.8
1981-08-28 09:19:59.820 ,3,0,1.,4.8,0.,4.8,0.,4.8,0.,4.8
1981-08-28 09:20:04.620 ,3,0,0.,4.8,0.,4.8,0.,4.8,0.,4.8
1981-08-28 09:20:09.420 ,3,0,0.,4.8,0.,4.8,0.,4.8,0.,4.8
1981-08-28 09:20:14.220 ,3,0,0.,4.8,0.,4.8,0.,4.8,0.,4.8
1981-08-28 09:20:19.020 ,3,0,2.,4.8,0.,4.8,0.,4.8,0.,4.8
1981-08-28 09:20:23.820 ,2,0,0.,4.8,0.,4.8,0.,4.8,0.,4.8
1981-08-28 09:20:28.620 ,2,0,3.,4.8,0.,4.8,0.,4.8,0.,4.8
1981-08-28 09:20:33.420 ,2,0,0.,4.8,0.,4.8,0.,4.8,0.,4.8
1981-08-28 09:20:38.220 ,2,0,0.,4.8,0.,4.8,0.,4.8,0.,4.8
1981-08-28 09:20:43.020 ,2,0,1.,4.8,0.,4.8,0.,4.8,0.,4.8
1981-08-28 09:20:47.820 ,1,0,1.,4.8,0.,4.8,0.,4.8,0.,4.8
1981-08-28 09:20:52.620 ,1,0,1.,4.8,0.,4.8,0.,4.8,0.,4.8
1981-08-28 09:20:57.420 ,1,0,0.,4.8,0.,4.8,0.,4.8,0.,4.8
1981-08-28 09:21:02.220 ,1,0,0.,4.8,0.,4.8,0.,4.8,0.,4.8
1981-08-28 09:21:07.020 ,1,0,1.,4.8,0.,4.8,0.,4.8,0.,4.8
1981-08-28 09:21:11.820 ,0,0,0.,4.8,0.,4.8,0.,4.8,0.,4.8
1981-08-28 09:21:16.620 ,0,0,0.,4.8,0.,4.8,0.,4.8,0.,4.8
1981-08-28 09:21:21.420 ,0,0,1.,4.8,0.,4.8,0.,4.8,0.,4.8
1981-08-28 09:21:26.220 ,0,0,0.,4.8,0.,4.8,0.,4.8,0.,4.8
1981-08-28 09:21:31.020 ,0,0,0.,4.8,0.,4.8,0.,4.8,0.,4.8
1981-08-28 09:21:35.820 ,0,0,1.,4.8,0.,4.8,0.,4.8,0.,4.8
1981-08-28 09:21:40.620 ,0,0,0.,4.8,0.,4.8,0.,4.8,0.,4.8
1981-08-28 09:21:45.420 ,0,0,2.,4.8,0.,4.8,0.,4.8,0.,4.8
1981-08-28 09:21:50.220 ,0,0,0.,4.8,0.,4.8,0.,4.8,0.,4.8
1981-08-28 09:21:55.020 ,0,0,0.,4.8,0.,4.8,0.,4.8,0.,4.8
1981-08-28 09:21:59.820 ,1,0,0.,4.8,0.,4.8,0.,4.8,0.,4.8
1981-08-28 09:22:04.620 ,1,0,0.,4.8,0.,4.8,0.,4.8,0.,4.8
1981-08-28 09:22:09.420 ,1,0,0.,4.8,0.,4.8,0.,4.8,0.,4.8
1981-08-28 09:22:14.220 ,1,0,0.,4.8,0.,4.8,0.,4.8,0.,4.8
1981-08-28 09:22:19.020 ,1,0,0.,4.8,0.,4.8,0.,4.8,0.,4.8
1981-08-28 09:22:23.820 ,2,0,0.,4.8,0.,4.8,0.,4.8,0.,4.8
1981-08-28 09:22:28.620 ,2,0,0.,4.8,0.,4.8,0.,4.8,0.,4.8
1981-08-28 09:22:33.420 ,2,0,0.,4.8,0.,4.8,0.,4.8,0.,4.8
1981-08-28 09:22:38.220 ,2,0,0.,4.8,0.,4.8,0.,4.8,0.,4.8
1981-08-28 09:22:43.020 ,2,0,1.,4.8,0.,4.8,0.,4.8,0.,4.8
1981-08-28 09:22:47.820 ,3,0,0.,4.8,0.,4.8,0.,4.8,0.,4.8
1981-08-28 09:22:52.620 ,3,0,0.,4.8,1.,4.8,0.,4.8,0.,4.8
1981-08-28 09:22:57.420 ,3,0,0.,4.8,0.,4.8,0.,4.8,0.,4.8
1981-08-28 09:23:02.220 ,3,0,0.,4.8,0.,4.8,0.,4.8,0.,4.8
1981-08-28 09:23:07.020 ,3,0,1.,4.8,0.,4.8,0.,4.8,0.,4.8
1981-08-28 09:23:11.820 ,4,0,0.,4.8,0.,4.8,0.,4.8,0.,4.8
1981-08-28 09:23:16.620 ,4,0,1.,4.8,0.,4.8,0.,4.8,0.,4.8
1981-08-28 09:23:21.420 ,4,0,0.,4.8,0.,4.8,0.,4.8,0.,4.8
1981-08-28 09:23:26.220 ,4,0,0.,4.8,0.,4.8,0.,4.8,0.,4.8
1981-08-28 09:23:31.020 ,4,0,0.,4.8,0.,4.8,0.,4.8,0.,4.8
1981-08-28 09:23:35.820 ,5,0,0.,4.8,0.,4.8,0.,4.8,0.,4.8
1981-08-28 09:23:40.620 ,5,0,0.,4.8,0.,4.8,0.,4.8,0.,4.8
1981-08-28 09:23:45.420 ,5,0,0.,4.8,0.,4.8,0.,4.8,0.,4.8
1981-08-28 09:23:50.220 ,5,0,0.,4.8,0.,4.8,0.,4.8,0.,4.8
1981-08-28 09:23:55.020 ,5,0,0.,4.8,0.,4.8,0.,4.8,0.,4.8
1981-08-28 09:23:59.820 ,6,0,0.,4.8,0.,4.8,0.,4.8,0.,4.8
1981-08-28 09:24:04.620 ,6,0,0.,4.8,1.,4.8,0.,4.8,0.,4.8
1981-08-28 09:24:09.420 ,6,0,2.,4.8,0.,4.8,0.,4.8,0.,4.8
1981-08-28 09:24:14.220 ,6,0,0.,4.8,0.,4.8,0.,4.8,0.,4.8
1981-08-28 09:24:19.020 ,6,0,0.,4.8,0.,4.8,0.,4.8,0.,4.8
1981-08-28 09:24:23.820 ,7,0,1.,4.8,0.,4.8,0.,4.8,0.,4.8
1981-08-28 09:24:28.620 ,7,0,0.,4.8,0.,4.8,0.,4.8,0.,4.8
1981-08-28 09:24:33.420 ,7,0,0.,4.8,0.,4.8,0.,4.8,0.,4.8
1981-08-28 09:24:38.220 ,7,0,0.,4.8,0.,4.8,0.,4.8,0.,4.8
1981-08-28 09:24:43.020 ,7,0,1.,4.8,0.,4.8,0.,4.8,0.,4.8
1981-08-28 09:24:47.820 ,7,0,0.,4.8,0.,4.8,0.,4.8,0.,4.8
1981-08-28 09:24:52.620 ,7,0,0.,4.8,0.,4.8,1.,4.8,0.,4.8
1981-08-28 09:24:57.420 ,7,0,1.,4.8,0.,4.8,0.,4.8,0.,4.8
1981-08-28 09:25:02.220 ,7,0,0.,4.8,0.,4.8,0.,4.8,0.,4.8
1981-08-28 09:25:07.020 ,7,0,1.,4.8,0.,4.8,0.,4.8,0.,4.8
1981-08-28 09:25:11.820 ,7,0,0.,4.8,0.,4.8,0.,4.8,0.,4.8
1981-08-28 09:25:16.620 ,7,0,0.,4.8,0.,4.8,0.,4.8,0.,4.8
1981-08-28 09:25:21.420 ,7,0,1.,4.8,0.,4.8,0.,4.8,0.,4.8
1981-08-28 09:25:26.220 ,7,0,2.,4.8,0.,4.8,0.,4.8,0.,4.8
1981-08-28 09:25:31.020 ,7,0,0.,4.8,0.,4.8,0.,4.8,0.,4.8
1981-08-28 09:25:35.820 ,6,0,0.,4.8,0.,4.8,0.,4.8,0.,4.8
1981-08-28 09:25:40.620 ,6,0,1.,4.8,0.,4.8,0.,4.8,0.,4.8
1981-08-28 09:25:45.420 ,6,0,0.,4.8,0.,4.8,0.,4.8,0.,4.8
1981-08-28 09:25:50.220 ,6,0,0.,4.8,0.,4.8,0.,4.8,0.,4.8
1981-08-28 09:25:55.020 ,6,0,0.,4.8,0.,4.8,0.,4.8,0.,4.8
1981-08-28 09:25:59.820 ,6,0,0.,4.8,0.,4.8,0.,4.8,0.,4.8
1981-08-28 09:26:04.620 ,6,0,0.,4.8,0.,4.8,0.,4.8,0.,4.8
1981-08-28 09:26:09.420 ,6,0,0.,4.8,0.,4.8,0.,4.8,0.,4.8
1981-08-28 09:26:14.220 ,6,0,2.,4.8,0.,4.8,0.,4.8,0.,4.8
1981-08-28 09:26:19.020 ,6,0,0.,4.8,0.,4.8,0.,4.8,0.,4.8
1981-08-28 09:26:23.820 ,5,0,2.,4.8,0.,4.8,0.,4.8,0.,4.8
1981-08-28 09:26:28.620 ,5,0,0.,4.8,0.,4.8,1.,4.8,0.,4.8
1981-08-28 09:26:33.420 ,5,0,0.,4.8,0.,4.8,0.,4.8,0.,4.8
1981-08-28 09:26:38.220 ,5,0,0.,4.8,0.,4.8,0.,4.8,0.,4.8
1981-08-28 09:26:43.020 ,5,0,0.,4.8,0.,4.8,0.,4.8,0.,4.8
1981-08-28 09:26:47.820 ,5,0,1.,4.8,0.,4.8,0.,4.8,0.,4.8
1981-08-28 09:26:52.620 ,5,0,0.,4.8,0.,4.8,0.,4.8,0.,4.8
1981-08-28 09:26:57.420 ,5,0,1.,4.8,0.,4.8,0.,4.8,0.,4.8
1981-08-28 09:27:02.220 ,5,0,0.,4.8,0.,4.8,0.,4.8,0.,4.8
1981-08-28 09:27:07.020 ,5,0,0.,4.8,0.,4.8,0.,4.8,0.,4.8
1981-08-28 09:27:11.820 ,4,0,1.,4.8,0.,4.8,0.,4.8,0.,4.8
1981-08-28 09:27:16.620 ,4,0,0.,4.8,0.,4.8,0.,4.8,0.,4.8
1981-08-28 09:27:21.420 ,4,0,0.,4.8,0.,4.8,0.,4.8,0.,4.8
1981-08-28 09:27:26.220 ,4,0,1.,4.8,0.,4.8,0.,4.8,0.,4.8
1981-08-28 09:27:31.020 ,4,0,0.,4.8,0.,4.8,1.,4.8,0.,4.8
1981-08-28 09:27:35.820 ,4,0,0.,4.8,0.,4.8,1.,4.8,0.,4.8
1981-08-28 09:27:40.620 ,4,0,0.,4.8,0.,4.8,0.,4.8,0.,4.8
1981-08-28 09:27:45.420 ,4,0,0.,4.8,0.,4.8,0.,4.8,0.,4.8
1981-08-28 09:27:50.220 ,4,0,0.,4.8,0.,4.8,0.,4.8,0.,4.8
1981-08-28 09:27:55.020 ,4,0,0.,4.8,0.,4.8,0.,4.8,0.,4.8
1981-08-28 09:27:59.820 ,3,0,0.,4.8,0.,4.8,0.,4.8,0.,4.8
1981-08-28 09:28:04.620 ,3,0,0.,4.8,0.,4.8,0.,4.8,0.,4.8
1981-08-28 09:28:09.420 ,3,0,0.,4.8,0.,4.8,0.,4.8,0.,4.8
1981-08-28 09:28:14.220 ,3,0,0.,4.8,0.,4.8,0.,4.8,0.,4.8
1981-08-28 09:28:19.020 ,3,0,0.,4.8,0.,4.8,1.,4.8,0.,4.8
1981-08-28 09:28:23.820 ,3,0,0.,4.8,0.,4.8,0.,4.8,0.,4.8
1981-08-28 09:28:28.620 ,3,0,0.,4.8,0.,4.8,0.,4.8,0.,4.8
1981-08-28 09:28:33.420 ,3,0,0.,4.8,0.,4.8,0.,4.8,0.,4.8
1981-08-28 09:28:38.220 ,3,0,0.,4.8,0.,4.8,0.,4.8,0.,4.8
1981-08-28 09:28:43.020 ,3,0,0.,4.8,0.,4.8,0.,4.8,0.,4.8
1981-08-28 09:28:47.820 ,2,0,0.,4.8,0.,4.8,0.,4.8,0.,4.8
1981-08-28 09:28:52.620 ,2,0,0.,4.8,0.,4.8,0.,4.8,0.,4.8
1981-08-28 09:28:57.420 ,2,0,2.,4.8,0.,4.8,0.,4.8,0.,4.8
1981-08-28 09:29:02.220 ,2,0,0.,4.8,0.,4.8,0.,4.8,0.,4.8
1981-08-28 09:29:07.020 ,2,0,0.,4.8,0.,4.8,1.,4.8,0.,4.8
1981-08-28 09:29:11.820 ,2,0,0.,4.8,1.,4.8,0.,4.8,0.,4.8
1981-08-28 09:29:16.620 ,2,0,1.,4.8,0.,4.8,0.,4.8,0.,4.8
1981-08-28 09:29:21.420 ,2,0,0.,4.8,0.,4.8,0.,4.8,0.,4.8
1981-08-28 09:29:26.220 ,2,0,0.,4.8,0.,4.8,1.,4.8,0.,4.8
1981-08-28 09:29:31.020 ,2,0,0.,4.8,1.,4.8,0.,4.8,0.,4.8
1981-08-28 09:29:35.820 ,1,0,1.,4.8,0.,4.8,0.,4.8,0.,4.8
1981-08-28 09:29:40.620 ,1,0,0.,4.8,0.,4.8,0.,4.8,0.,4.8
1981-08-28 09:29:45.420 ,1,0,0.,4.8,0.,4.8,0.,4.8,0.,4.8
1981-08-28 09:29:50.220 ,1,0,0.,4.8,0.,4.8,0.,4.8,0.,4.8
1981-08-28 09:29:55.020 ,1,0,0.,4.8,0.,4.8,0.,4.8,0.,4.8
1981-08-28 09:29:59.820 ,0,0,0.,4.8,0.,4.8,0.,4.8,0.,4.8
1981-08-28 09:30:04.620 ,0,0,0.,4.8,0.,4.8,0.,4.8,0.,4.8
1981-08-28 09:30:09.420 ,0,0,0.,4.8,0.,4.8,0.,4.8,0.,4.8
1981-08-28 09:30:14.220 ,0,0,0.,4.8,0.,4.8,0.,4.8,0.,4.8
1981-08-28 09:30:19.020 ,0,0,1.,4.8,0.,4.8,0.,4.8,0.,4.8
1981-08-28 09:30:23.820 ,0,0,1.,4.8,0.,4.8,0.,4.8,0.,4.8
1981-08-28 09:30:28.620 ,0,0,0.,4.8,0.,4.8,0.,4.8,0.,4.8
1981-08-28 09:30:33.420 ,0,0,0.,4.8,0.,4.8,0.,4.8,0.,4.8
1981-08-28 09:30:38.220 ,0,0,0.,4.8,1.,4.8,0.,4.8,0.,4.8
1981-08-28 09:30:43.020 ,0,0,0.,4.8,0.,4.8,0.,4.8,0.,4.8
1981-08-28 09:30:47.820 ,0,0,0.,4.8,0.,4.8,0.,4.8,0.,4.8
1981-08-28 09:30:52.620 ,0,0,0.,4.8,0.,4.8,0.,4.8,0.,4.8
1981-08-28 09:30:57.420 ,0,0,0.,4.8,0.,4.8,0.,4.8,0.,4.8
1981-08-28 09:31:02.220 ,0,0,0.,4.8,0.,4.8,0.,4.8,0.,4.8
1981-08-28 09:31:07.020 ,0,0,0.,4.8,0.,4.8,0.,4.8,0.,4.8
1981-08-28 09:31:11.820 ,0,0,1.,4.8,0.,4.8,0.,4.8,0.,4.8
1981-08-28 09:31:16.620 ,0,0,1.,4.8,0.,4.8,0.,4.8,0.,4.8
1981-08-28 09:31:21.420 ,0,0,0.,4.8,0.,4.8,0.,4.8,0.,4.8
1981-08-28 09:31:26.220 ,0,0,0.,4.8,0.,4.8,0.,4.8,0.,4.8
1981-08-28 09:31:31.020 ,0,0,0.,4.8,0.,4.8,0.,4.8,0.,4.8
1981-08-28 09:31:35.820 ,0,0,1.,4.8,0.,4.8,0.,4.8,0.,4.8
1981-08-28 09:31:40.620 ,0,0,,0,,0,,0,,0
1981-08-28 09:31:45.420 ,0,0,0.,4.8,0.,4.8,0.,4.8,0.,4.8
1981-08-28 09:31:50.220 ,0,0,0.,4.8,0.,4.8,0.,4.8,0.,4.8
1981-08-28 09:31:55.020 ,0,0,1.,4.8,0.,4.8,0.,4.8,0.,4.8
1981-08-28 09:31:59.820 ,1,0,0.,4.8,0.,4.8,1.,4.8,0.,4.8
1981-08-28 09:32:04.620 ,1,0,0.,4.8,0.,4.8,0.,4.8,0.,4.8
1981-08-28 09:32:09.420 ,1,0,0.,4.8,0.,4.8,0.,4.8,0.,4.8
1981-08-28 09:32:14.220 ,1,0,0.,4.8,0.,4.8,0.,4.8,0.,4.8
1981-08-28 09:32:19.020 ,1,0,2.,4.8,0.,4.8,0.,4.8,0.,4.8
1981-08-28 09:32:23.820 ,1,0,3.,4.8,0.,4.8,0.,4.8,0.,4.8
1981-08-28 09:32:28.620 ,1,0,0.,4.8,0.,4.8,0.,4.8,0.,4.8
1981-08-28 09:32:33.420 ,1,0,0.,4.8,0.,4.8,0.,4.8,0.,4.8
1981-08-28 09:32:38.220 ,1,0,1.,4.8,0.,4.8,0.,4.8,0.,4.8
1981-08-28 09:32:43.020 ,1,0,0.,4.8,0.,4.8,0.,4.8,0.,4.8
1981-08-28 09:32:47.820 ,2,0,2.,4.8,0.,4.8,0.,4.8,0.,4.8
1981-08-28 09:32:52.620 ,2,0,0.,4.8,0.,4.8,0.,4.8,0.,4.8
1981-08-28 09:32:57.420 ,2,0,0.,4.8,0.,4.8,0.,4.8,0.,4.8
1981-08-28 09:33:02.220 ,2,0,0.,4.8,0.,4.8,0.,4.8,0.,4.8
1981-08-28 09:33:07.020 ,2,0,1.,4.8,0.,4.8,0.,4.8,0.,4.8
1981-08-28 09:33:11.820 ,2,0,0.,4.8,0.,4.8,0.,4.8,0.,4.8
1981-08-28 09:33:16.620 ,2,0,0.,4.8,0.,4.8,0.,4.8,0.,4.8